Mount Carmel Municipal (AJG)

 

Airport Diagram
No Airport Diagram Available
Current Weather/Forecast (VFR Conditions)
METAR KAJG 182335Z AUTO 22007KT 10SM CLR 15/03 A2989 RMK AO2 T01460031
TAF

Airport Information

All Charts
General
Chart Name View
TAKEOFF MINIMUMS
TAKEOFF MINIMUMS

Approaches
Chart Name Download
RNAV (GPS) RWY 04
RNAV (GPS) RWY 22
RNAV (GPS) RWY 31
RNAV (GPS) RWY 04
RNAV (GPS) RWY 22
RNAV (GPS) RWY 31


Airport Statistics
Departures Arrivals Local
All Collected Stats since June 2016: 12 0 0
2021 Stats: 1 0 0
April Stats: 0 0 0

Inbound Traffic (Arrivals) - 0

No inbound traffic.


Outbound Traffic (Departures) - 0

No outbound traffic.


Local Traffic (Pattern) - 0

No local traffic.